Location: Boiro
(42.6475°N, 8.8834°W)
Time: 04:29:01
(UTC+01:00)

X-37B - Pass Details

Date: 25 October 2021
Orbit: 330 x 341 km, 45.0° (Epoch: 20 November)

Event Time Altitude Azimuth Distance (km) Brightness Sun altitude
Rises 21:32:03 0° 283° (WNW) 2,126 5.8 -21.6°
Reaches altitude 10° 21:34:15 10° 269° (W) 1,284 4.4 -22.0°
Enters shadow 21:36:14 24° 228° (SW) 761 2.5 -22.4°
